owner,sensor,date,latitude,longitude,vertical_datum,sea_water_practical_salinity,qcFlag 
ENP,ioos.station.NOAA.NDBC:DKKF1:1,2017-10-01T00:00:00Z,25.1800,-80.4900,1.5,26.65,1111122 
ENP,ioos.station.NOAA.NDBC:DKKF1:1,2017-10-01T02:00:00Z,25.1800,-80.4900,1.5,26.67,1111122 
ENP,ioos.station.NOAA.NDBC:DKKF1:1,2017-10-01T03:00:00Z,25.1800,-80.4900,1.5,26.67,1111122 
ENP,ioos.station.NOAA.NDBC:DKKF1:1,2017-10-01T05:00:00Z,25.1800,-80.4900,1.5,26.64,1111122 
ENP,ioos.station.NOAA.NDBC:DKKF1:1,2017-10-01T06:00:00Z,25.1800,-80.4900,1.5,26.63,1111122 
ENP,ioos.station.NOAA.NDBC:DKKF1:1,2017-10-01T07:00:00Z,25.1800,-80.4900,1.5,26.64,1111122 
ENP,ioos.station.NOAA.NDBC:DKKF1:1,2017-10-01T08:00:00Z,25.1800,-80.4900,1.5,26.64,1111122 
ENP,ioos.station.NOAA.NDBC:DKKF1:1,2017-10-01T11:00:00Z,25.1800,-80.4900,1.5,26.72,1111122 
ENP,ioos.station.NOAA.NDBC:DKKF1:1,2017-10-01T12:00:00Z,25.1800,-80.4900,1.5,26.75,1111122 
ENP,ioos.station.NOAA.NDBC:DKKF1:1,2017-10-01T13:00:00Z,25.1800,-80.4900,1.5,26.75,1111122 
ENP,ioos.station.NOAA.NDBC:DKKF1:1,2017-10-01T14:00:00Z,25.1800,-80.4900,1.5,26.77,1111122 
ENP,ioos.station.NOAA.NDBC:DKKF1:1,2017-10-01T15:00:00Z,25.1800,-80.4900,1.5,26.78,1111122 
ENP,ioos.station.NOAA.NDBC:DKKF1:1,2017-10-01T16:00:00Z,25.1800,-80.4900,1.5,26.8,1111122 
ENP,ioos.station.NOAA.NDBC:DKKF1:1,2017-10-01T17:00:00Z,25.1800,-80.4900,1.5,26.83,1111122 
ENP,ioos.station.NOAA.NDBC:DKKF1:1,2017-10-01T18:00:00Z,25.1800,-80.4900,1.5,26.86,1111122 
ENP,ioos.station.NOAA.NDBC:DKKF1:1,2017-10-01T19:00:00Z,25.1800,-80.4900,1.5,26.88,1111122 
ENP,ioos.station.NOAA.NDBC:DKKF1:1,2017-10-01T20:00:00Z,25.1800,-80.4900,1.5,26.9,1111122 
ENP,ioos.station.NOAA.NDBC:DKKF1:1,2017-10-01T21:00:00Z,25.1800,-80.4900,1.5,26.93,1111122 
ENP,ioos.station.NOAA.NDBC:DKKF1:1,2017-10-01T22:00:00Z,25.1800,-80.4900,1.5,26.96,1111122 
ENP,ioos.station.NOAA.NDBC:DKKF1:1,2017-10-01T23:00:00Z,25.1800,-80.4900,1.5,26.98,1111122 
ENP,ioos.station.NOAA.NDBC:DKKF1:1,2017-10-02T00:00:00Z,25.1800,-80.4900,1.5,26.98,1111122 
ENP,ioos.station.NOAA.NDBC:DKKF1:1,2017-10-02T02:00:00Z,25.1800,-80.4900,1.5,27.03,1111122 
ENP,ioos.station.NOAA.NDBC:DKKF1:1,2017-10-02T03:00:00Z,25.1800,-80.4900,1.5,26.98,1111122 
ENP,ioos.station.NOAA.NDBC:DKKF1:1,2017-10-02T05:00:00Z,25.1800,-80.4900,1.5,27.01,1111122 
ENP,ioos.station.NOAA.NDBC:DKKF1:1,2017-10-02T06:00:00Z,25.1800,-80.4900,1.5,27.02,1111122 
ENP,ioos.station.NOAA.NDBC:DKKF1:1,2017-10-02T07:00:00Z,25.1800,-80.4900,1.5,27.01,1111122 
ENP,ioos.station.NOAA.NDBC:DKKF1:1,2017-10-02T08:00:00Z,25.1800,-80.4900,1.5,27.0,1111122 
ENP,ioos.station.NOAA.NDBC:DKKF1:1,2017-10-02T10:00:00Z,25.1800,-80.4900,1.5,26.97,1111122 
ENP,ioos.station.NOAA.NDBC:DKKF1:1,2017-10-02T11:00:00Z,25.1800,-80.4900,1.5,26.97,1111122 
ENP,ioos.station.NOAA.NDBC:DKKF1:1,2017-10-02T12:00:00Z,25.1800,-80.4900,1.5,26.97,1111122 
ENP,ioos.station.NOAA.NDBC:DKKF1:1,2017-10-02T13:00:00Z,25.1800,-80.4900,1.5,26.99,1111122 
ENP,ioos.station.NOAA.NDBC:DKKF1:1,2017-10-02T14:00:00Z,25.1800,-80.4900,1.5,27.0,1111122 
ENP,ioos.station.NOAA.NDBC:DKKF1:1,2017-10-02T15:00:00Z,25.1800,-80.4900,1.5,27.03,1111122 
ENP,ioos.station.NOAA.NDBC:DKKF1:1,2017-10-02T16:00:00Z,25.1800,-80.4900,1.5,27.1,1111122 
ENP,ioos.station.NOAA.NDBC:DKKF1:1,2017-10-02T17:00:00Z,25.1800,-80.4900,1.5,27.18,1111122 
ENP,ioos.station.NOAA.NDBC:DKKF1:1,2017-10-02T18:00:00Z,25.1800,-80.4900,1.5,27.27,1111122 
ENP,ioos.station.NOAA.NDBC:DKKF1:1,2017-10-02T19:00:00Z,25.1800,-80.4900,1.5,27.34,1111122 
ENP,ioos.station.NOAA.NDBC:DKKF1:1,2017-10-02T20:00:00Z,25.1800,-80.4900,1.5,27.35,1111122 
ENP,ioos.station.NOAA.NDBC:DKKF1:1,2017-10-02T21:00:00Z,25.1800,-80.4900,1.5,27.24,1111122 
ENP,ioos.station.NOAA.NDBC:DKKF1:1,2017-10-02T22:00:00Z,25.1800,-80.4900,1.5,27.15,1111122 
ENP,ioos.station.NOAA.NDBC:DKKF1:1,2017-10-02T23:00:00Z,25.1800,-80.4900,1.5,27.05,1111122 
ENP,ioos.station.NOAA.NDBC:DKKF1:1,2017-10-03T00:00:00Z,25.1800,-80.4900,1.5,27.07,1111122 
ENP,ioos.station.NOAA.NDBC:DKKF1:1,2017-10-03T02:00:00Z,25.1800,-80.4900,1.5,27.08,1111122 
ENP,ioos.station.NOAA.NDBC:DKKF1:1,2017-10-03T03:00:00Z,25.1800,-80.4900,1.5,27.1,1111122 
ENP,ioos.station.NOAA.NDBC:DKKF1:1,2017-10-03T05:00:00Z,25.1800,-80.4900,1.5,27.13,1111122 
ENP,ioos.station.NOAA.NDBC:DKKF1:1,2017-10-03T06:00:00Z,25.1800,-80.4900,1.5,27.13,1111122 
ENP,ioos.station.NOAA.NDBC:DKKF1:1,2017-10-03T07:00:00Z,25.1800,-80.4900,1.5,27.15,1111122 
ENP,ioos.station.NOAA.NDBC:DKKF1:1,2017-10-03T08:00:00Z,25.1800,-80.4900,1.5,27.16,1111122 
ENP,ioos.station.NOAA.NDBC:DKKF1:1,2017-10-03T10:00:00Z,25.1800,-80.4900,1.5,27.2,11111222 
ENP,ioos.station.NOAA.NDBC:DKKF1:1,2017-10-03T11:00:00Z,25.1800,-80.4900,1.5,27.22,1111122 
ENP,ioos.station.NOAA.NDBC:DKKF1:1,2017-10-03T12:00:00Z,25.1800,-80.4900,1.5,27.23,1111122 
ENP,ioos.station.NOAA.NDBC:DKKF1:1,2017-10-03T13:00:00Z,25.1800,-80.4900,1.5,27.26,1111122 
ENP,ioos.station.NOAA.NDBC:DKKF1:1,2017-10-03T14:00:00Z,25.1800,-80.4900,1.5,27.29,1111122 
ENP,ioos.station.NOAA.NDBC:DKKF1:1,2017-10-03T15:00:00Z,25.1800,-80.4900,1.5,27.31,1111122 
ENP,ioos.station.NOAA.NDBC:DKKF1:1,2017-10-03T16:00:00Z,25.1800,-80.4900,1.5,27.35,1111122 
ENP,ioos.station.NOAA.NDBC:DKKF1:1,2017-10-03T17:00:00Z,25.1800,-80.4900,1.5,27.43,1111122 
ENP,ioos.station.NOAA.NDBC:DKKF1:1,2017-10-03T18:00:00Z,25.1800,-80.4900,1.5,27.52,1111122 
ENP,ioos.station.NOAA.NDBC:DKKF1:1,2017-10-03T19:00:00Z,25.1800,-80.4900,1.5,27.6,1111122 
ENP,ioos.station.NOAA.NDBC:DKKF1:1,2017-10-03T20:00:00Z,25.1800,-80.4900,1.5,27.69,1111122 
ENP,ioos.station.NOAA.NDBC:DKKF1:1,2017-10-03T21:00:00Z,25.1800,-80.4900,1.5,27.76,1111122 
ENP,ioos.station.NOAA.NDBC:DKKF1:1,2017-10-03T22:00:00Z,25.1800,-80.4900,1.5,27.75,1111122 
ENP,ioos.station.NOAA.NDBC:DKKF1:1,2017-10-03T23:00:00Z,25.1800,-80.4900,1.5,27.75,1111122 
ENP,ioos.station.NOAA.NDBC:DKKF1:1,2017-10-04T00:00:00Z,25.1800,-80.4900,1.5,27.74,1111122 
ENP,ioos.station.NOAA.NDBC:DKKF1:1,2017-10-04T01:00:00Z,25.1800,-80.4900,1.5,27.7,11111222 
ENP,ioos.station.NOAA.NDBC:DKKF1:1,2017-10-04T02:00:00Z,25.1800,-80.4900,1.5,27.77,1111122 
ENP,ioos.station.NOAA.NDBC:DKKF1:1,2017-10-04T03:00:00Z,25.1800,-80.4900,1.5,27.79,1111122 
ENP,ioos.station.NOAA.NDBC:DKKF1:1,2017-10-04T05:00:00Z,25.1800,-80.4900,1.5,27.72,1111122 
ENP,ioos.station.NOAA.NDBC:DKKF1:1,2017-10-04T06:00:00Z,25.1800,-80.4900,1.5,27.59,1111122 
ENP,ioos.station.NOAA.NDBC:DKKF1:1,2017-10-04T07:00:00Z,25.1800,-80.4900,1.5,27.54,1111122 
ENP,ioos.station.NOAA.NDBC:DKKF1:1,2017-10-04T08:00:00Z,25.1800,-80.4900,1.5,27.43,1111122 
ENP,ioos.station.NOAA.NDBC:DKKF1:1,2017-10-04T10:00:00Z,25.1800,-80.4900,1.5,27.32,1111122 
ENP,ioos.station.NOAA.NDBC:DKKF1:1,2017-10-04T11:00:00Z,25.1800,-80.4900,1.5,27.28,1111122 
ENP,ioos.station.NOAA.NDBC:DKKF1:1,2017-10-04T12:00:00Z,25.1800,-80.4900,1.5,27.27,1111122 
ENP,ioos.station.NOAA.NDBC:DKKF1:1,2017-10-04T13:00:00Z,25.1800,-80.4900,1.5,27.27,1111122 
ENP,ioos.station.NOAA.NDBC:DKKF1:1,2017-10-04T14:00:00Z,25.1800,-80.4900,1.5,27.24,1111122 
ENP,ioos.station.NOAA.NDBC:DKKF1:1,2017-10-04T15:00:00Z,25.1800,-80.4900,1.5,27.17,1111122 
ENP,ioos.station.NOAA.NDBC:DKKF1:1,2017-10-04T16:00:00Z,25.1800,-80.4900,1.5,27.05,1111122 
ENP,ioos.station.NOAA.NDBC:DKKF1:1,2017-10-04T17:00:00Z,25.1800,-80.4900,1.5,26.83,1111122 
ENP,ioos.station.NOAA.NDBC:DKKF1:1,2017-10-04T18:00:00Z,25.1800,-80.4900,1.5,26.84,1111122 
ENP,ioos.station.NOAA.NDBC:DKKF1:1,2017-10-04T19:00:00Z,25.1800,-80.4900,1.5,26.9,1111122 
ENP,ioos.station.NOAA.NDBC:DKKF1:1,2017-10-04T20:00:00Z,25.1800,-80.4900,1.5,26.96,1111122 
ENP,ioos.station.NOAA.NDBC:DKKF1:1,2017-10-04T21:00:00Z,25.1800,-80.4900,1.5,26.91,1111122 
ENP,ioos.station.NOAA.NDBC:DKKF1:1,2017-10-04T22:00:00Z,25.1800,-80.4900,1.5,26.87,1111122 
ENP,ioos.station.NOAA.NDBC:DKKF1:1,2017-10-04T23:00:00Z,25.1800,-80.4900,1.5,26.85,1111122 
ENP,ioos.station.NOAA.NDBC:DKKF1:1,2017-10-05T00:00:00Z,25.1800,-80.4900,1.5,26.7,1111122 
ENP,ioos.station.NOAA.NDBC:DKKF1:1,2017-10-05T02:00:00Z,25.1800,-80.4900,1.5,26.75,1111122 
ENP,ioos.station.NOAA.NDBC:DKKF1:1,2017-10-05T03:00:00Z,25.1800,-80.4900,1.5,26.83,1111122 
ENP,ioos.station.NOAA.NDBC:DKKF1:1,2017-10-05T05:00:00Z,25.1800,-80.4900,1.5,26.84,1111122 
ENP,ioos.station.NOAA.NDBC:DKKF1:1,2017-10-05T06:00:00Z,25.1800,-80.4900,1.5,26.87,1111122 
ENP,ioos.station.NOAA.NDBC:DKKF1:1,2017-10-05T07:00:00Z,25.1800,-80.4900,1.5,26.84,1111122 
ENP,ioos.station.NOAA.NDBC:DKKF1:1,2017-10-05T08:00:00Z,25.1800,-80.4900,1.5,26.86,1111122 
ENP,ioos.station.NOAA.NDBC:DKKF1:1,2017-10-05T10:00:00Z,25.1800,-80.4900,1.5,26.83,1111122 
ENP,ioos.station.NOAA.NDBC:DKKF1:1,2017-10-05T12:00:00Z,25.1800,-80.4900,1.5,26.54,1111122 
ENP,ioos.station.NOAA.NDBC:DKKF1:1,2017-10-05T13:00:00Z,25.1800,-80.4900,1.5,26.58,1111122 
ENP,ioos.station.NOAA.NDBC:DKKF1:1,2017-10-05T14:00:00Z,25.1800,-80.4900,1.5,26.14,1111122 
ENP,ioos.station.NOAA.NDBC:DKKF1:1,2017-10-05T15:00:00Z,25.1800,-80.4900,1.5,25.85,1111122 
ENP,ioos.station.NOAA.NDBC:DKKF1:1,2017-10-05T16:00:00Z,25.1800,-80.4900,1.5,25.83,1111122 
ENP,ioos.station.NOAA.NDBC:DKKF1:1,2017-10-05T17:00:00Z,25.1800,-80.4900,1.5,25.87,1111122 
ENP,ioos.station.NOAA.NDBC:DKKF1:1,2017-10-05T18:00:00Z,25.1800,-80.4900,1.5,25.85,1111122 
ENP,ioos.station.NOAA.NDBC:DKKF1:1,2017-10-05T19:00:00Z,25.1800,-80.4900,1.5,25.9,1111122 
ENP,ioos.station.NOAA.NDBC:DKKF1:1,2017-10-05T20:00:00Z,25.1800,-80.4900,1.5,25.97,1111122 
ENP,ioos.station.NOAA.NDBC:DKKF1:1,2017-10-05T21:00:00Z,25.1800,-80.4900,1.5,26.04,1111122 
ENP,ioos.station.NOAA.NDBC:DKKF1:1,2017-10-05T22:00:00Z,25.1800,-80.4900,1.5,26.13,1111122 
ENP,ioos.station.NOAA.NDBC:DKKF1:1,2017-10-05T23:00:00Z,25.1800,-80.4900,1.5,26.19,1111122 
ENP,ioos.station.NOAA.NDBC:DKKF1:1,2017-10-06T00:00:00Z,25.1800,-80.4900,1.5,26.2,1111122 
ENP,ioos.station.NOAA.NDBC:DKKF1:1,2017-10-06T03:00:00Z,25.1800,-80.4900,1.5,26.22,1111122 
ENP,ioos.station.NOAA.NDBC:DKKF1:1,2017-10-06T05:00:00Z,25.1800,-80.4900,1.5,26.23,1111122 
ENP,ioos.station.NOAA.NDBC:DKKF1:1,2017-10-06T06:00:00Z,25.1800,-80.4900,1.5,26.26,1111122 
ENP,ioos.station.NOAA.NDBC:DKKF1:1,2017-10-06T07:00:00Z,25.1800,-80.4900,1.5,26.29,1111122 
ENP,ioos.station.NOAA.NDBC:DKKF1:1,2017-10-06T08:00:00Z,25.1800,-80.4900,1.5,26.31,1111122 
ENP,ioos.station.NOAA.NDBC:DKKF1:1,2017-10-06T10:00:00Z,25.1800,-80.4900,1.5,26.89,1111122 
ENP,ioos.station.NOAA.NDBC:DKKF1:1,2017-10-06T11:00:00Z,25.1800,-80.4900,1.5,27.29,1111122 
ENP,ioos.station.NOAA.NDBC:DKKF1:1,2017-10-06T12:00:00Z,25.1800,-80.4900,1.5,27.48,1111122 
ENP,ioos.station.NOAA.NDBC:DKKF1:1,2017-10-06T13:00:00Z,25.1800,-80.4900,1.5,27.5,1111122 
ENP,ioos.station.NOAA.NDBC:DKKF1:1,2017-10-06T14:00:00Z,25.1800,-80.4900,1.5,27.54,1111122 
ENP,ioos.station.NOAA.NDBC:DKKF1:1,2017-10-06T15:00:00Z,25.1800,-80.4900,1.5,27.67,1111122 
ENP,ioos.station.NOAA.NDBC:DKKF1:1,2017-10-06T16:00:00Z,25.1800,-80.4900,1.5,27.85,1111122 
ENP,ioos.station.NOAA.NDBC:DKKF1:1,2017-10-06T17:00:00Z,25.1800,-80.4900,1.5,27.95,1111122 
ENP,ioos.station.NOAA.NDBC:DKKF1:1,2017-10-06T18:00:00Z,25.1800,-80.4900,1.5,27.74,1111122 
ENP,ioos.station.NOAA.NDBC:DKKF1:1,2017-10-06T19:00:00Z,25.1800,-80.4900,1.5,27.84,1111122 
ENP,ioos.station.NOAA.NDBC:DKKF1:1,2017-10-06T20:00:00Z,25.1800,-80.4900,1.5,27.87,1111122 
ENP,ioos.station.NOAA.NDBC:DKKF1:1,2017-10-06T21:00:00Z,25.1800,-80.4900,1.5,27.67,1111122 
ENP,ioos.station.NOAA.NDBC:DKKF1:1,2017-10-06T22:00:00Z,25.1800,-80.4900,1.5,27.58,1111122 
ENP,ioos.station.NOAA.NDBC:DKKF1:1,2017-10-06T23:00:00Z,25.1800,-80.4900,1.5,27.74,1111122 
ENP,ioos.station.NOAA.NDBC:DKKF1:1,2017-10-07T00:00:00Z,25.1800,-80.4900,1.5,27.87,1111122 
ENP,ioos.station.NOAA.NDBC:DKKF1:1,2017-10-07T02:00:00Z,25.1800,-80.4900,1.5,28.19,1111122 
ENP,ioos.station.NOAA.NDBC:DKKF1:1,2017-10-07T03:00:00Z,25.1800,-80.4900,1.5,28.26,1111122 
ENP,ioos.station.NOAA.NDBC:DKKF1:1,2017-10-07T05:00:00Z,25.1800,-80.4900,1.5,28.28,1111122 
ENP,ioos.station.NOAA.NDBC:DKKF1:1,2017-10-07T06:00:00Z,25.1800,-80.4900,1.5,28.16,1111122 
ENP,ioos.station.NOAA.NDBC:DKKF1:1,2017-10-07T07:00:00Z,25.1800,-80.4900,1.5,28.19,1111122 
ENP,ioos.station.NOAA.NDBC:DKKF1:1,2017-10-07T08:00:00Z,25.1800,-80.4900,1.5,28.15,1111122 
ENP,ioos.station.NOAA.NDBC:DKKF1:1,2017-10-07T10:00:00Z,25.1800,-80.4900,1.5,28.11,1111122 
ENP,ioos.station.NOAA.NDBC:DKKF1:1,2017-10-07T11:00:00Z,25.1800,-80.4900,1.5,28.09,1111122 
ENP,ioos.station.NOAA.NDBC:DKKF1:1,2017-10-07T12:00:00Z,25.1800,-80.4900,1.5,28.09,1111122 
ENP,ioos.station.NOAA.NDBC:DKKF1:1,2017-10-07T13:00:00Z,25.1800,-80.4900,1.5,28.09,1111122 
ENP,ioos.station.NOAA.NDBC:DKKF1:1,2017-10-07T14:00:00Z,25.1800,-80.4900,1.5,28.07,1111122 
ENP,ioos.station.NOAA.NDBC:DKKF1:1,2017-10-07T15:00:00Z,25.1800,-80.4900,1.5,28.1,1111122 
ENP,ioos.station.NOAA.NDBC:DKKF1:1,2017-10-07T16:00:00Z,25.1800,-80.4900,1.5,28.12,1111122 
ENP,ioos.station.NOAA.NDBC:DKKF1:1,2017-10-07T17:00:00Z,25.1800,-80.4900,1.5,28.12,1111122 
ENP,ioos.station.NOAA.NDBC:DKKF1:1,2017-10-07T18:00:00Z,25.1800,-80.4900,1.5,28.12,1111122 
ENP,ioos.station.NOAA.NDBC:DKKF1:1,2017-10-07T19:00:00Z,25.1800,-80.4900,1.5,28.12,1111122 
ENP,ioos.station.NOAA.NDBC:DKKF1:1,2017-10-07T20:00:00Z,25.1800,-80.4900,1.5,28.12,1111122 
ENP,ioos.station.NOAA.NDBC:DKKF1:1,2017-10-07T21:00:00Z,25.1800,-80.4900,1.5,28.12,1111122 
ENP,ioos.station.NOAA.NDBC:DKKF1:1,2017-10-07T22:00:00Z,25.1800,-80.4900,1.5,28.13,1111122 
ENP,ioos.station.NOAA.NDBC:DKKF1:1,2017-10-07T23:00:00Z,25.1800,-80.4900,1.5,28.0,1111122 
ENP,ioos.station.NOAA.NDBC:DKKF1:1,2017-10-08T00:00:00Z,25.1800,-80.4900,1.5,28.04,1111122 
ENP,ioos.station.NOAA.NDBC:DKKF1:1,2017-10-08T02:00:00Z,25.1800,-80.4900,1.5,28.1,1111122 
ENP,ioos.station.NOAA.NDBC:DKKF1:1,2017-10-08T03:00:00Z,25.1800,-80.4900,1.5,28.13,1111122 
ENP,ioos.station.NOAA.NDBC:DKKF1:1,2017-10-08T05:00:00Z,25.1800,-80.4900,1.5,28.13,1111122 
ENP,ioos.station.NOAA.NDBC:DKKF1:1,2017-10-08T06:00:00Z,25.1800,-80.4900,1.5,28.15,1111122 
ENP,ioos.station.NOAA.NDBC:DKKF1:1,2017-10-08T07:00:00Z,25.1800,-80.4900,1.5,28.16,1111122 
ENP,ioos.station.NOAA.NDBC:DKKF1:1,2017-10-08T08:00:00Z,25.1800,-80.4900,1.5,28.17,1111122 
ENP,ioos.station.NOAA.NDBC:DKKF1:1,2017-10-08T10:00:00Z,25.1800,-80.4900,1.5,28.06,1111122 
ENP,ioos.station.NOAA.NDBC:DKKF1:1,2017-10-08T11:00:00Z,25.1800,-80.4900,1.5,28.17,1111122 
ENP,ioos.station.NOAA.NDBC:DKKF1:1,2017-10-08T12:00:00Z,25.1800,-80.4900,1.5,28.15,1111122 
ENP,ioos.station.NOAA.NDBC:DKKF1:1,2017-10-08T13:00:00Z,25.1800,-80.4900,1.5,28.05,1111122 
ENP,ioos.station.NOAA.NDBC:DKKF1:1,2017-10-08T14:00:00Z,25.1800,-80.4900,1.5,28.06,1111122 
ENP,ioos.station.NOAA.NDBC:DKKF1:1,2017-10-08T15:00:00Z,25.1800,-80.4900,1.5,28.05,1111122 
ENP,ioos.station.NOAA.NDBC:DKKF1:1,2017-10-08T16:00:00Z,25.1800,-80.4900,1.5,27.84,1111122 
ENP,ioos.station.NOAA.NDBC:DKKF1:1,2017-10-08T17:00:00Z,25.1800,-80.4900,1.5,28.01,1111122 
ENP,ioos.station.NOAA.NDBC:DKKF1:1,2017-10-08T18:00:00Z,25.1800,-80.4900,1.5,28.01,1111122 
ENP,ioos.station.NOAA.NDBC:DKKF1:1,2017-10-08T19:00:00Z,25.1800,-80.4900,1.5,28.07,1111122 
ENP,ioos.station.NOAA.NDBC:DKKF1:1,2017-10-08T20:00:00Z,25.1800,-80.4900,1.5,28.24,1111122 
ENP,ioos.station.NOAA.NDBC:DKKF1:1,2017-10-08T21:00:00Z,25.1800,-80.4900,1.5,28.41,1111122 
ENP,ioos.station.NOAA.NDBC:DKKF1:1,2017-10-08T22:00:00Z,25.1800,-80.4900,1.5,28.38,1111122 
ENP,ioos.station.NOAA.NDBC:DKKF1:1,2017-10-08T23:00:00Z,25.1800,-80.4900,1.5,27.97,1111122 
ENP,ioos.station.NOAA.NDBC:DKKF1:1,2017-10-09T00:00:00Z,25.1800,-80.4900,1.5,27.94,1111122 
ENP,ioos.station.NOAA.NDBC:DKKF1:1,2017-10-09T02:00:00Z,25.1800,-80.4900,1.5,27.93,1111122 
ENP,ioos.station.NOAA.NDBC:DKKF1:1,2017-10-09T03:00:00Z,25.1800,-80.4900,1.5,27.96,1111122 
ENP,ioos.station.NOAA.NDBC:DKKF1:1,2017-10-09T05:00:00Z,25.1800,-80.4900,1.5,28.07,1111122 
ENP,ioos.station.NOAA.NDBC:DKKF1:1,2017-10-09T06:00:00Z,25.1800,-80.4900,1.5,27.97,1111122 
ENP,ioos.station.NOAA.NDBC:DKKF1:1,2017-10-09T07:00:00Z,25.1800,-80.4900,1.5,28.09,1111122 
ENP,ioos.station.NOAA.NDBC:DKKF1:1,2017-10-09T10:00:00Z,25.1800,-80.4900,1.5,28.06,1111122 
ENP,ioos.station.NOAA.NDBC:DKKF1:1,2017-10-09T11:00:00Z,25.1800,-80.4900,1.5,28.09,1111122 
ENP,ioos.station.NOAA.NDBC:DKKF1:1,2017-10-09T12:00:00Z,25.1800,-80.4900,1.5,28.07,1111122 
ENP,ioos.station.NOAA.NDBC:DKKF1:1,2017-10-09T13:00:00Z,25.1800,-80.4900,1.5,28.19,1111122 
ENP,ioos.station.NOAA.NDBC:DKKF1:1,2017-10-09T14:00:00Z,25.1800,-80.4900,1.5,28.27,1111122 
ENP,ioos.station.NOAA.NDBC:DKKF1:1,2017-10-09T15:00:00Z,25.1800,-80.4900,1.5,28.3,1111122 
ENP,ioos.station.NOAA.NDBC:DKKF1:1,2017-10-09T16:00:00Z,25.1800,-80.4900,1.5,28.32,1111122 
ENP,ioos.station.NOAA.NDBC:DKKF1:1,2017-10-09T18:00:00Z,25.1800,-80.4900,1.5,28.77,1111122 
ENP,ioos.station.NOAA.NDBC:DKKF1:1,2017-10-09T19:00:00Z,25.1800,-80.4900,1.5,28.58,1111122 
ENP,ioos.station.NOAA.NDBC:DKKF1:1,2017-10-09T20:00:00Z,25.1800,-80.4900,1.5,28.49,1111122 
ENP,ioos.station.NOAA.NDBC:DKKF1:1,2017-10-09T21:00:00Z,25.1800,-80.4900,1.5,28.6,1111122 
ENP,ioos.station.NOAA.NDBC:DKKF1:1,2017-10-09T22:00:00Z,25.1800,-80.4900,1.5,28.67,1111122 
ENP,ioos.station.NOAA.NDBC:DKKF1:1,2017-10-09T23:00:00Z,25.1800,-80.4900,1.5,28.75,1111122 
ENP,ioos.station.NOAA.NDBC:DKKF1:1,2017-10-10T00:00:00Z,25.1800,-80.4900,1.5,28.8,1111122 
ENP,ioos.station.NOAA.NDBC:DKKF1:1,2017-10-10T02:00:00Z,25.1800,-80.4900,1.5,28.85,1111122 
ENP,ioos.station.NOAA.NDBC:DKKF1:1,2017-10-10T03:00:00Z,25.1800,-80.4900,1.5,28.82,1111122 
ENP,ioos.station.NOAA.NDBC:DKKF1:1,2017-10-10T05:00:00Z,25.1800,-80.4900,1.5,28.75,1111122 
ENP,ioos.station.NOAA.NDBC:DKKF1:1,2017-10-10T06:00:00Z,25.1800,-80.4900,1.5,28.74,1111122 
ENP,ioos.station.NOAA.NDBC:DKKF1:1,2017-10-10T07:00:00Z,25.1800,-80.4900,1.5,28.73,1111122 
ENP,ioos.station.NOAA.NDBC:DKKF1:1,2017-10-10T08:00:00Z,25.1800,-80.4900,1.5,28.74,1111122 
ENP,ioos.station.NOAA.NDBC:DKKF1:1,2017-10-10T10:00:00Z,25.1800,-80.4900,1.5,28.72,1111122 
ENP,ioos.station.NOAA.NDBC:DKKF1:1,2017-10-10T11:00:00Z,25.1800,-80.4900,1.5,28.7,1111122 
ENP,ioos.station.NOAA.NDBC:DKKF1:1,2017-10-10T12:00:00Z,25.1800,-80.4900,1.5,28.57,1111122 
ENP,ioos.station.NOAA.NDBC:DKKF1:1,2017-10-10T13:00:00Z,25.1800,-80.4900,1.5,28.6,1111122 
ENP,ioos.station.NOAA.NDBC:DKKF1:1,2017-10-10T14:00:00Z,25.1800,-80.4900,1.5,28.61,1111122 
ENP,ioos.station.NOAA.NDBC:DKKF1:1,2017-10-10T15:00:00Z,25.1800,-80.4900,1.5,28.6,1111122 
ENP,ioos.station.NOAA.NDBC:DKKF1:1,2017-10-10T16:00:00Z,25.1800,-80.4900,1.5,28.57,1111122 
ENP,ioos.station.NOAA.NDBC:DKKF1:1,2017-10-10T17:00:00Z,25.1800,-80.4900,1.5,28.6,1111122 
ENP,ioos.station.NOAA.NDBC:DKKF1:1,2017-10-10T18:00:00Z,25.1800,-80.4900,1.5,28.65,1111122 
ENP,ioos.station.NOAA.NDBC:DKKF1:1,2017-10-10T19:00:00Z,25.1800,-80.4900,1.5,28.67,1111122 
ENP,ioos.station.NOAA.NDBC:DKKF1:1,2017-10-10T20:00:00Z,25.1800,-80.4900,1.5,28.67,1111122 
ENP,ioos.station.NOAA.NDBC:DKKF1:1,2017-10-10T21:00:00Z,25.1800,-80.4900,1.5,28.7,1111122 
ENP,ioos.station.NOAA.NDBC:DKKF1:1,2017-10-10T22:00:00Z,25.1800,-80.4900,1.5,28.73,1111122 
ENP,ioos.station.NOAA.NDBC:DKKF1:1,2017-10-10T23:00:00Z,25.1800,-80.4900,1.5,28.73,1111122 
ENP,ioos.station.NOAA.NDBC:DKKF1:1,2017-10-11T00:00:00Z,25.1800,-80.4900,1.5,28.7,1111122 
ENP,ioos.station.NOAA.NDBC:DKKF1:1,2017-10-11T02:00:00Z,25.1800,-80.4900,1.5,28.72,1111122 
ENP,ioos.station.NOAA.NDBC:DKKF1:1,2017-10-11T03:00:00Z,25.1800,-80.4900,1.5,28.74,1111122 
ENP,ioos.station.NOAA.NDBC:DKKF1:1,2017-10-11T05:00:00Z,25.1800,-80.4900,1.5,28.77,1111122 
ENP,ioos.station.NOAA.NDBC:DKKF1:1,2017-10-11T06:00:00Z,25.1800,-80.4900,1.5,28.77,1111122 
ENP,ioos.station.NOAA.NDBC:DKKF1:1,2017-10-11T07:00:00Z,25.1800,-80.4900,1.5,28.78,1111122 
ENP,ioos.station.NOAA.NDBC:DKKF1:1,2017-10-11T08:00:00Z,25.1800,-80.4900,1.5,28.78,1111122 
ENP,ioos.station.NOAA.NDBC:DKKF1:1,2017-10-11T10:00:00Z,25.1800,-80.4900,1.5,28.82,1111122 
ENP,ioos.station.NOAA.NDBC:DKKF1:1,2017-10-11T11:00:00Z,25.1800,-80.4900,1.5,28.8,11111222 
ENP,ioos.station.NOAA.NDBC:DKKF1:1,2017-10-11T12:00:00Z,25.1800,-80.4900,1.5,28.8,11111222 
ENP,ioos.station.NOAA.NDBC:DKKF1:1,2017-10-11T13:00:00Z,25.1800,-80.4900,1.5,28.72,1111122 
ENP,ioos.station.NOAA.NDBC:DKKF1:1,2017-10-11T14:00:00Z,25.1800,-80.4900,1.5,28.62,1111122 
ENP,ioos.station.NOAA.NDBC:DKKF1:1,2017-10-11T15:00:00Z,25.1800,-80.4900,1.5,28.47,1111122 
ENP,ioos.station.NOAA.NDBC:DKKF1:1,2017-10-11T16:00:00Z,25.1800,-80.4900,1.5,28.15,1111122 
ENP,ioos.station.NOAA.NDBC:DKKF1:1,2017-10-11T17:00:00Z,25.1800,-80.4900,1.5,28.17,1111122 
ENP,ioos.station.NOAA.NDBC:DKKF1:1,2017-10-11T18:00:00Z,25.1800,-80.4900,1.5,28.31,1111122 
ENP,ioos.station.NOAA.NDBC:DKKF1:1,2017-10-11T19:00:00Z,25.1800,-80.4900,1.5,28.21,1111122 
ENP,ioos.station.NOAA.NDBC:DKKF1:1,2017-10-11T20:00:00Z,25.1800,-80.4900,1.5,28.12,1111122 
ENP,ioos.station.NOAA.NDBC:DKKF1:1,2017-10-11T21:00:00Z,25.1800,-80.4900,1.5,28.09,1111122 
ENP,ioos.station.NOAA.NDBC:DKKF1:1,2017-10-11T22:00:00Z,25.1800,-80.4900,1.5,28.06,1111122 
ENP,ioos.station.NOAA.NDBC:DKKF1:1,2017-10-11T23:00:00Z,25.1800,-80.4900,1.5,27.91,1111122 
ENP,ioos.station.NOAA.NDBC:DKKF1:1,2017-10-12T00:00:00Z,25.1800,-80.4900,1.5,27.88,1111122 
ENP,ioos.station.NOAA.NDBC:DKKF1:1,2017-10-12T02:00:00Z,25.1800,-80.4900,1.5,27.97,1111122 
ENP,ioos.station.NOAA.NDBC:DKKF1:1,2017-10-12T03:00:00Z,25.1800,-80.4900,1.5,28.0,1111122 
ENP,ioos.station.NOAA.NDBC:DKKF1:1,2017-10-12T05:00:00Z,25.1800,-80.4900,1.5,28.06,1111122 
ENP,ioos.station.NOAA.NDBC:DKKF1:1,2017-10-12T06:00:00Z,25.1800,-80.4900,1.5,28.12,1111122 
ENP,ioos.station.NOAA.NDBC:DKKF1:1,2017-10-12T07:00:00Z,25.1800,-80.4900,1.5,28.1,1111122 
ENP,ioos.station.NOAA.NDBC:DKKF1:1,2017-10-12T08:00:00Z,25.1800,-80.4900,1.5,28.1,1111122 
ENP,ioos.station.NOAA.NDBC:DKKF1:1,2017-10-12T10:00:00Z,25.1800,-80.4900,1.5,28.3,11111222 
ENP,ioos.station.NOAA.NDBC:DKKF1:1,2017-10-12T11:00:00Z,25.1800,-80.4900,1.5,28.31,1111122 
ENP,ioos.station.NOAA.NDBC:DKKF1:1,2017-10-12T12:00:00Z,25.1800,-80.4900,1.5,28.24,1111122 
ENP,ioos.station.NOAA.NDBC:DKKF1:1,2017-10-12T13:00:00Z,25.1800,-80.4900,1.5,28.01,1111122 
ENP,ioos.station.NOAA.NDBC:DKKF1:1,2017-10-12T14:00:00Z,25.1800,-80.4900,1.5,27.84,1111122 
ENP,ioos.station.NOAA.NDBC:DKKF1:1,2017-10-12T15:00:00Z,25.1800,-80.4900,1.5,27.79,1111122 
ENP,ioos.station.NOAA.NDBC:DKKF1:1,2017-10-12T16:00:00Z,25.1800,-80.4900,1.5,27.84,1111122 
ENP,ioos.station.NOAA.NDBC:DKKF1:1,2017-10-12T17:00:00Z,25.1800,-80.4900,1.5,27.87,1111122 
ENP,ioos.station.NOAA.NDBC:DKKF1:1,2017-10-12T18:00:00Z,25.1800,-80.4900,1.5,27.99,1111122 
ENP,ioos.station.NOAA.NDBC:DKKF1:1,2017-10-12T19:00:00Z,25.1800,-80.4900,1.5,28.2,1111122 
ENP,ioos.station.NOAA.NDBC:DKKF1:1,2017-10-12T20:00:00Z,25.1800,-80.4900,1.5,28.13,1111122 
ENP,ioos.station.NOAA.NDBC:DKKF1:1,2017-10-12T21:00:00Z,25.1800,-80.4900,1.5,28.08,1111122 
ENP,ioos.station.NOAA.NDBC:DKKF1:1,2017-10-12T22:00:00Z,25.1800,-80.4900,1.5,27.77,1111122 
ENP,ioos.station.NOAA.NDBC:DKKF1:1,2017-10-12T23:00:00Z,25.1800,-80.4900,1.5,27.66,1111122 
ENP,ioos.station.NOAA.NDBC:DKKF1:1,2017-10-13T00:00:00Z,25.1800,-80.4900,1.5,27.74,1111122 
ENP,ioos.station.NOAA.NDBC:DKKF1:1,2017-10-13T02:00:00Z,25.1800,-80.4900,1.5,27.84,1111122 
ENP,ioos.station.NOAA.NDBC:DKKF1:1,2017-10-13T03:00:00Z,25.1800,-80.4900,1.5,27.84,1111122 
ENP,ioos.station.NOAA.NDBC:DKKF1:1,2017-10-13T05:00:00Z,25.1800,-80.4900,1.5,27.84,1111122 
ENP,ioos.station.NOAA.NDBC:DKKF1:1,2017-10-13T06:00:00Z,25.1800,-80.4900,1.5,27.83,1111122 
ENP,ioos.station.NOAA.NDBC:DKKF1:1,2017-10-13T07:00:00Z,25.1800,-80.4900,1.5,27.82,1111122 
ENP,ioos.station.NOAA.NDBC:DKKF1:1,2017-10-13T08:00:00Z,25.1800,-80.4900,1.5,27.81,1111122 
ENP,ioos.station.NOAA.NDBC:DKKF1:1,2017-10-13T10:00:00Z,25.1800,-80.4900,1.5,27.84,1111122 
ENP,ioos.station.NOAA.NDBC:DKKF1:1,2017-10-13T11:00:00Z,25.1800,-80.4900,1.5,27.85,1111122 
ENP,ioos.station.NOAA.NDBC:DKKF1:1,2017-10-13T12:00:00Z,25.1800,-80.4900,1.5,27.7,1111122 
ENP,ioos.station.NOAA.NDBC:DKKF1:1,2017-10-13T13:00:00Z,25.1800,-80.4900,1.5,27.57,1111122 
ENP,ioos.station.NOAA.NDBC:DKKF1:1,2017-10-13T14:00:00Z,25.1800,-80.4900,1.5,27.82,1111122 